Showing default

ICEYE-X39, 60546

Orbit data source: Space-Track

ICEYE-X39, 60546 is a Brazilian payload satellite in SSO that was launched on Fri, 16 Aug 2024 UTC via an FALCON 9 launch vehicle from the Air Force Western Test Range (AFWTR). Payload-class satellites include a variety of spacecraft equipped with specific instruments for various scientific and technological missions. These include communications satellites like Starlink; space stations such as the ISS; scientific satellites like the Hubble; Earth observation satellites from companies like Planet Labs, Umbra, and HawkEye 360; GPS; miniature CubeSats for education and research; and military/defense satellites.

Loading next visibility...
Identifier
60546, 2024-149CG
Orbit
SSO
Country
Flag of UnknownUnknown / BRAZ
Related business
Manufacturer
ICEYE
Mission
Operational Commercial Radar Imaging
Bus & Motor
ICEYE, Unknown motor
Mass
80 kg wet, 80 kg dry
Launch date (UTC)
2024-08-16 (1 year ago)
Launch vehicle
FALCON 9
Launch site
Air Force Western Test Range (AFWTR)
Object type
Payload
Rocket body
Debris
Shape & HBR
Box + 1 Pan, 0.8 m
Radar Cross Section
0.776 m², Medium (>0.1 m² and < 1m²)

Expand to show TLE details & history
Last TLE update: 14 hours ago

TLE from 14 hours ago
0 ICEYE-X39
1 60546U 24149CG  25289.15705904  .00005325  00000-0  45857-3 0  9995
2 60546  97.7034   4.4558 0005007 159.6038 200.5385 14.97759180 63567
Epoch: 2025-10-16T03:46Z
TLE epoch observation values (Epoch: 2025-10-16T03:46:09.901Z)
Latitude
Longitude
-77.00627°
Altitude
580.134 km
Speed
7.569 km/s
True Right ascension
00h 17m 49s
True Declination
0° 00' 00"
Sunlit
Object was in full shadow at epoch
Visualization orbit readout
Latitude
Unknown
Longitude
Unknown
Altitude
Unknown
Speed
Unknown
Apparent Right ascension
Unknown
Apparent Declination
Unknown
Sunlit
N/A
Visualization observer readout
Local Sidereal Time
12:32:40
Azimuth
Unknown
Elevation
Unknown
Doppler factor
Unknown
Orbital elements
Apogee altitude
574.309 km
Perigee altitude
567.351 km
Semi-major axis
6,948.967 km
Eccentricity
0.0005
Inclination
97.7034°
RAAN
4.4558°
Arg. of periapsis
159.6038°
True anomaly
200.51838°
Mean anomaly
200.5385°
Eccentric anomaly
200.52844°
Mean motion
3.74682 °/min
Orbital period
96.08 mins
BSTAR
0.00045857
Loading maneuver chart data...
Computing Atmospheric mass density...
Loading historical data...
Loading historical data...
Loading historical data...
Loading historical data...
Loading historical data...
Loading historical data...
Loading historical data...

Documentation

Showing up to 5 results
|